Location: Churchill Northern Studies Centre
(58.7378°N, 93.8201°W)
Time: 09:23:33
(UTC-06:00)

Vanguard 2 Rocket - Visible Passes

Search period start: 11 December 2017 00:00
Search period end: 21 December 2017 00:00
Orbit: 555 x 3326 km, 32.9° (Epoch: 10 December)

Date Brightness Start Highest point End Pass type
(mag) Time Alt. Az. Time Alt. Az. Time Alt. Az.
11 Dec 10.4 18:37:05 10° SSE 18:43:03 13° SE 18:45:38 13° SE visible
11 Dec 10.2 20:43:27 10° SSW 20:51:26 23° S 20:51:26 23° S visible
11 Dec 10.7 22:55:14 10° SW 22:57:14 14° SW 22:57:14 14° SW visible
12 Dec 10.2 19:45:16 10° SSW 19:55:15 21° SSE 19:55:15 21° SSE visible
12 Dec 10.4 21:55:37 10° SW 22:01:03 21° SSW 22:01:03 21° SSW visible
13 Dec 10.3 18:48:01 10° S 18:55:46 17° SE 18:59:02 16° SE visible
13 Dec 10.2 20:56:32 10° SW 21:04:50 25° S 21:04:50 25° S visible
13 Dec 10.7 23:09:02 10° WSW 23:10:38 13° SW 23:10:38 13° SW visible
14 Dec 10.4 17:53:03 10° SSE 17:56:30 11° SE 18:00:17 10° ESE visible
14 Dec 10.1 19:58:02 10° SSW 20:08:22 24° SSE 20:08:37 24° SSE visible
14 Dec 10.4 22:09:15 10° SW 22:14:25 20° SW 22:14:25 20° SW visible
15 Dec 10.2 19:00:14 10° S 19:08:39 19° SSE 19:12:23 18° SE visible
15 Dec 10.1 21:10:01 10° SW 21:18:11 25° SSW 21:18:11 25° SSW visible
15 Dec 10.7 23:23:13 10° WSW 23:23:58 11° WSW 23:23:58 11° WSW visible
16 Dec 10.3 18:03:31 10° S 18:09:18 14° SE 18:16:08 10° ESE visible
16 Dec 10.1 20:11:17 10° SSW 20:21:29 25° SSE 20:21:56 24° SSE visible
16 Dec 10.4 22:23:14 10° WSW 22:27:44 19° SW 22:27:44 19° SW visible
17 Dec 10.1 19:13:08 10° SSW 19:21:43 21° SSE 19:25:42 19° SE visible
17 Dec 10.2 21:23:50 10° SW 21:31:30 24° SSW 21:31:30 24° SSW visible
18 Dec 10.1 18:15:43 10° S 18:22:17 17° SSE 18:29:29 11° ESE visible
18 Dec 10.0 20:24:56 10° SW 20:34:44 24° S 20:35:17 24° S visible
18 Dec 10.5 22:37:39 10° WSW 22:41:05 16° SW 22:41:05 16° SW visible
19 Dec 10.2 17:20:02 10° SSE 17:23:12 11° SE 17:26:46 10° SE visible
19 Dec 10.0 19:26:32 10° SSW 19:34:57 22° SSE 19:39:04 19° SSE visible
19 Dec 10.2 21:38:00 10° SW 21:44:53 21° SSW 21:44:53 21° SSW visible
20 Dec 10.0 18:28:43 10° SSW 18:35:28 18° SSE 18:42:53 12° SE visible
20 Dec 10.1 20:38:55 10° SW 20:48:05 22° S 20:48:42 22° S visible
20 Dec 10.6 22:52:44 10° WSW 22:54:30 13° SW 22:54:30 13° SW visible
